Weather History for North Platte, NE

Change the Weather History Date:

Saturday, October 5, 2013

  Actual Average Record
Temperature  
Mean Temperature 40 °F 53 °F  
Max Temperature 43 °F 69 °F 96 °F (1947)
Min Temperature 36 °F 38 °F 22 °F (1964)
Degree Days  
Heating Degree Days 25 12  
Month to date heating degree days 61 55  
Since 1 July heating degree days 144 226  
Cooling Degree Days 0 0  
Month to date cooling degree days 0 0  
Year to date cooling degree days 998 765  
Moisture  
Dew Point 29 °F    
Average Humidity 67    
Maximum Humidity 76    
Minimum Humidity 57    
Precipitation  
Precipitation T in 0.05 in 2.61 in (1911)
Month to date precipitation 0.03 0.28  
Year to date precipitation 19.47 17.91  
Snow  
Snow 0.00 in 0.10 in T in (2012)
Month to date snowfall 0.0 0.2  
Since 1 July snowfall 0.0 0.4  
Since 1 September snowfall 0.0 0.4  
Snow Depth 0.00 in    
Sea Level Pressure  
Sea Level Pressure 30.03 in    
Wind  
Wind Speed 25 mph (WNW)    
Max Wind Speed 36 mph    
Max Gust Speed 49 mph    
Visibility 9 miles    
Events Rain , Snow    
T = Trace of Precipitation, MM = Missing Value Source: NWS Daily Summary

Daily Weather History Graph

Daily Weather History Graph

Search for Another Location

Airport:

Trip Planner

Search our weather history database for the weather conditions in past years. The results will help you decide how hot, cold, wet, or windy it might be!

Date:

Astronomy

Oct. 05, 2013 Rise Set
Actual Time 7:43 AM CDT 7:17 PM CDT
Civil Twilight 7:16 AM CDT 7:44 PM CDT
Nautical Twilight 6:44 AM CDT 8:16 PM CDT
Astronomical Twilight 6:12 AM CDT 8:48 PM CDT
Moon 8:25 AM CDT (10/5) 7:36 PM CDT (10/5)
Length of Visible Light 12h 28m
Length of Day
11h 33m
New Moon, 1% of the Moon is Illuminated
Oct 5
New Moon
Oct 11
First Quarter
Oct 18
Full
Oct 26
Last Quarter
Nov 3
New

Hourly Weather History & Observations

Time (CDT) Temp. Windchill Dew Point Humidity Pressure Visibility Wind Dir Wind Speed Gust Speed Precip Events Conditions
12:53 AM 37.0 °F 23.9 °F 28.9 °F 73% 29.99 in 9.0 mi WNW 33.4 mph 43.7 mph 0.00 in Snow Light Snow
1:53 AM 37.0 °F 25.6 °F 28.0 °F 70% 29.99 in 9.0 mi WNW 24.2 mph 41.4 mph 0.00 in Snow Light Snow
2:53 AM 37.0 °F 25.1 °F 28.0 °F 70% 30.00 in 9.0 mi WNW 26.5 mph 38.0 mph 0.00 in Snow Light Snow
3:53 AM 36.0 °F 25.0 °F 28.0 °F 73% 30.02 in 9.0 mi WNW 20.7 mph 27.6 mph 0.00 in   Clear
4:53 AM 36.0 °F 23.9 °F 28.0 °F 73% 30.00 in 10.0 mi WNW 25.3 mph 32.2 mph N/A   Scattered Clouds
5:53 AM 37.0 °F 25.6 °F 28.0 °F 70% 30.01 in 10.0 mi West 24.2 mph 34.5 mph N/A   Overcast
6:53 AM 37.0 °F 25.1 °F 28.0 °F 70% 30.02 in 10.0 mi WNW 26.5 mph 32.2 mph N/A   Overcast
7:53 AM 36.0 °F 24.4 °F 28.0 °F 73% 30.02 in 10.0 mi West 23.0 mph 31.1 mph N/A   Mostly Cloudy
8:53 AM 37.9 °F 26.3 °F 28.9 °F 70% 30.03 in 10.0 mi WNW 26.5 mph 33.4 mph N/A   Partly Cloudy
9:53 AM 39.9 °F 29.0 °F 28.9 °F 65% 30.04 in 10.0 mi WNW 26.5 mph 38.0 mph N/A   Mostly Cloudy
10:07 AM 39.2 °F 28.7 °F 28.4 °F 65% 30.01 in 10.0 mi WNW 23.0 mph 40.3 mph N/A   Overcast
10:53 AM 39.9 °F 28.8 °F 30.0 °F 68% 30.05 in 10.0 mi WNW 27.6 mph 40.3 mph N/A   Overcast
11:30 AM 37.4 °F 26.4 °F 28.4 °F 70% 30.02 in 2.5 mi NW 23.0 mph 43.7 mph 0.00 in Snow Light Snow
11:36 AM 37.4 °F 26.1 °F 28.4 °F 70% 30.02 in 1.0 mi NW 24.2 mph 36.8 mph 0.00 in Snow Light Snow
11:43 AM 37.4 °F 25.2 °F 30.2 °F 75% 30.02 in 7.0 mi WNW 28.8 mph 35.7 mph 0.00 in   Overcast
11:53 AM 37.9 °F 27.1 °F 30.0 °F 73% 30.07 in 10.0 mi WNW 23.0 mph 32.2 mph 0.00 in   Overcast
12:09 PM 37.4 °F 25.6 °F 28.4 °F 70% 30.03 in 10.0 mi WNW 26.5 mph 34.5 mph N/A   Overcast
12:26 PM 39.2 °F 28.0 °F 28.4 °F 65% 30.02 in 10.0 mi WNW 26.5 mph 34.5 mph N/A   Overcast
12:53 PM 39.9 °F 29.0 °F 28.0 °F 63% 30.06 in 10.0 mi WNW 26.5 mph 36.8 mph N/A   Overcast
1:53 PM 41.0 °F 30.2 °F 28.0 °F 60% 30.04 in 10.0 mi WNW 27.6 mph 38.0 mph 0.00 in   Overcast
2:53 PM 41.0 °F 30.9 °F 28.9 °F 62% 30.03 in 10.0 mi WNW 24.2 mph 35.7 mph 0.00 in   Overcast
3:53 PM 41.0 °F 29.3 °F 28.0 °F 60% 30.04 in 10.0 mi NW 33.4 mph 49.5 mph N/A   Overcast
4:53 PM 43.0 °F 33.1 °F 28.0 °F 56% 30.03 in 10.0 mi WNW 26.5 mph 35.7 mph N/A   Overcast
5:53 PM 41.0 °F 30.0 °F 30.0 °F 65% 30.04 in 10.0 mi NW 28.8 mph 40.3 mph N/A   Overcast
6:53 PM 41.0 °F 30.0 °F 30.0 °F 65% 30.05 in 10.0 mi NW 28.8 mph 40.3 mph N/A   Overcast
7:53 PM 41.0 °F 31.4 °F 30.9 °F 67% 30.05 in 10.0 mi NW 21.9 mph 27.6 mph N/A   Overcast
8:53 PM 41.0 °F 30.5 °F 30.0 °F 65% 30.06 in 10.0 mi NW 26.5 mph 34.5 mph 0.00 in Rain Light Rain
9:53 PM 41.0 °F 31.1 °F 28.0 °F 60% 30.06 in 10.0 mi NW 23.0 mph 32.2 mph 0.00 in   Mostly Cloudy
10:53 PM 42.1 °F 33.3 °F 30.0 °F 62% 30.09 in 10.0 mi NW 19.6 mph 33.4 mph N/A   Overcast
11:53 PM 43.0 °F 34.0 °F 30.0 °F 60% 30.06 in 10.0 mi NW 21.9 mph 43.7 mph N/A   Overcast